Regional Weather Roundup
Issued by NWS

Home | Current Version | Previous Version | Graphics & Text | Print | Product List | Glossary On
Versions: 1 2 3 4 5 6 7 8 9 10 11 12 13 14 15 16 17 18 19 20 21 22 23 24 25 26 27 28 29 30 31 32 33 34 35 36 37 38 39 40 41 42 43 44 45 46 47 48 49 50
000
ASUS43 KDMX 180007
RWRIA

WEATHER ROUNDUP FOR IOWA
NATIONAL WEATHER SERVICE DES MOINES IA
700 PM CDT FRI APR 17 2015

NOTE: "FAIR" INDICATES FEW OR NO CLOUDS BELOW 12,000 FEET WITH NO
SIGNIFICANT WEATHER AND/OR OBSTRUCTIONS TO VISIBILITY.

* - THESE STATIONS ARE NOT NWS STATIONS...THUS NOT UNDER NWS
QUALITY CONTROL.  THEY ALSO DO NOT REPORT WEATHER SUCH
AS PRECIPITATION OR FOG.

IAZ001>003-012>014-020>022-031>034-043>046-180100-
   NORTHWEST IOWA

CITY           SKY/WX    TMP DP  RH WIND       PRES   REMARKS
CARROLL *      MOSUNNY   75  46  35 SE3       29.99F
CHEROKEE *     CLOUDY    71  46  40 CALM      30.01S
DENISON *      SUNNY     73  50  43 E3        29.98S
LE MARS *      SUNNY     73  46  38 CALM      30.02S
ORANGE CITY *  SUNNY     72  43  35 CALM      30.02S
SHELDON *      MOSUNNY   73  43  33 CALM      30.01S
SIOUX CITY     CLOUDY    74  45  35 NE7       30.00S
6HR MIN TEMP:  71; 6HR MAX TEMP:  77;

SPENCER        CLOUDY    75  43  31 N5        30.02S
6HR MIN TEMP:  74; 6HR MAX TEMP:  79; 6HR PCP: TRACE;

STORM LAKE *   SUNNY     72  45  37 N7        30.02S
$$

IAZ055>058-069>071-079>083-090>094-180100-
   SOUTHWEST IOWA

CITY           SKY/WX    TMP DP  RH WIND       PRES   REMARKS
ATLANTIC *     SUNNY     73  52  46 CALM      29.99S
AUDUBON *      MOSUNNY   72  52  49 E5        30.00F
CLARINDA *     PTSUNNY   73  54  49 CALM      30.00R
COUNCIL BLFS * SUNNY     73  54  49 SE6       29.99S
CRESTON *      SUNNY     72  54  53 NE6       29.99S
HARLAN  *      SUNNY     73  52  46 SE5       30.02S
LAMONI         CLOUDY    75  56  51 CALM      29.97S
6HR MIN TEMP:  74; 6HR MAX TEMP:  79;

RED OAK *      CLOUDY    73  54  49 SE6       29.99R
SHENANDOAH *   CLOUDY    73  55  53 SE5       29.99R
$$

IAZ047>049-059>061-072>074-084-180100-
   CENTRAL IOWA

CITY           SKY/WX    TMP DP  RH WIND       PRES   REMARKS
AMES           MOCLDY    75  49  39 S3        29.98S
6HR MIN TEMP:  73; 6HR MAX TEMP:  79;

ANKENY *       CLEAR     75  52  43 CALM      29.98S
CHARITON *     PTCLDY    73  52  46 NE6       29.98F
DES MOINES     MOCLDY    76  50  40 S5        29.98F
6HR MIN TEMP:  75; 6HR MAX TEMP:  80;

GRINNELL*      MOCLDY    75  48  38 S5        29.99F
KNOXVILLE *    CLEAR     75  50  41 CALM      29.98S
MARSHALLTOWN   MOCLDY    75  48  38 CALM      29.97F
6HR MIN TEMP:  73; 6HR MAX TEMP:  79;

PELLA *        MOCLDY    75  54  48 CALM      29.99F
PERRY *          N/A     77  46  33 CALM      29.99S
$$

IAZ004>006-015-016-023>025-035-036-180100-
   NORTH CENTRAL IOWA

CITY           SKY/WX    TMP DP  RH WIND       PRES   REMARKS
ALGONA *       SUNNY     73  45  35 N3        30.02S
CLARION *      CLEAR     73  43  33 N7        30.00S
ESTHERVILLE    CLOUDY    71  42  35 N9        30.02
6HR MIN TEMP:  71; 6HR MAX TEMP:  76;

FORT DODGE *   CLOUDY    73  45  35 N5        30.00F
MASON CITY     MOCLDY    71  46  40 NW6       30.02S
6HR MIN TEMP:  71; 6HR MAX TEMP:  78;

FOREST CITY *  PTCLDY    70  45  40 CALM      30.01S
IOWA FALLS *     N/A     75  43  31 CALM      30.00F
$$

IAZ007>011-017>019-026>030-037>042-050>054-066-180100-
   NORTHEAST IOWA

CITY           SKY/WX    TMP DP  RH WIND       PRES   REMARKS
CEDAR RAPIDS   MOCLDY    74  50  42 S6        29.98S
6HR MIN TEMP:  74; 6HR MAX TEMP:  79;

CHARLES CITY * CLEAR     72  45  37 N6        30.01S
CLINTON *      CLEAR     73  46  38 NW3       30.00F
DECORAH *      CLEAR     73  43  33 NW10      29.99S
DUBUQUE        MOCLDY    73  49  42 W5        29.99F
6HR MIN TEMP:  73; 6HR MAX TEMP:  78;

MONTICELLO *   CLEAR     75  48  38 W5        29.98S
OELWEIN *      CLOUDY    75  46  35 N3        30.00S
WATERLOO       MOCLDY    75  46  35 W3        29.98S
6HR MIN TEMP:  75; 6HR MAX TEMP:  80;

$$

IAZ064-065-067-068-078-180100-
   EAST CENTRAL IOWA

CITY           SKY/WX    TMP DP  RH WIND       PRES   REMARKS
DAVENPORT      MOCLDY    75  46  35 S6        29.98F
6HR MIN TEMP:  75; 6HR MAX TEMP:  79;

IOWA CITY      PTCLDY    75  50  41 SW3       29.99S
6HR MIN TEMP:  73; 6HR MAX TEMP:  79;

MT. PLEASANT * MOCLDY    76  49  37 CALM      29.98S
MUSCATINE *    CLEAR     77  50  38 W5        29.98S
QUAD CITIES    CLEAR     75  47  36 SW3       29.96F
6HR MIN TEMP:  74; 6HR MAX TEMP:  80;

$$

IAZ062-063-075>077-085>089-095>099-180100-
   SOUTHEAST IOWA

CITY           SKY/WX    TMP DP  RH WIND       PRES   REMARKS
BURLINGTON     PTCLDY    79  51  37 CALM      29.97F
6HR MIN TEMP:  75; 6HR MAX TEMP:  80;

FAIRFIELD *    PTCLDY    75  52  43 N6        29.98F
FORT MADISON * CLEAR     75  55  50 CALM      29.98F
KEOKUK *       CLEAR     77  54  44 CALM      29.96F
OSKALOOSA *      N/A     76  48  37 N5        29.99F
CENTERVILLE *  PTCLDY    77  54  44 CALM      29.99S
OTTUMWA        MOCLDY    74  51  44 N5        29.98S
6HR MIN TEMP:  74; 6HR MAX TEMP:  79;

WASHINGTON *   CLEAR     77  50  38 CALM      29.98S
$$

ABBREVIATIONS USED IN REMARKS
   TC - TEMPERATURES IN CELSIUS
  WCI - WIND CHILL INDEX
   HX - HEAT INDEX
  VSB - VISIBILITY
$$



USA.gov is the U.S. government's official web portal to all federal, state and local government web resources and services.